Home > Weather > Barrie > Past weeks

Flag for Canada Past Weather in Barrie, Ontario, Canada — Yesterday and Last 2 Weeks

Now
82 °F

Sunny.


Feels Like: 81 °F
Forecast: 43 / 79 °F
Wind: 9 mph from Northwest

Location: Borden

Current Time: May 24, 2016 at 3:39:03 PM

Latest Report: May 24, 2016 at 3:00 PM


Visibility: 9 mi

Pressure: 29.97 "Hg

Humidity: 28%

Dew Point: 46 °F

Location of BarrieLocation

Past Weather in Barrie — Graph

°F

Barrie Temperature Yesterday

Maximum temperature yesterday: 77 °F (at 3:00 PM)
Minimum temperature yesterday: 34 °F (at 6:00 AM)
Average temperature yesterday: 58 °F

High & Low Weather Summary for the Past Weeks

 TemperatureHumidityPressure
High81 °F (May 24, 1:00 PM)100% (May 11, 6:00 AM)30.30 "Hg (May 11, 6:00 AM)
Low25 °F (May 10, 3:00 AM)23% (May 11, 4:00 PM)29.45 "Hg (May 14, 10:46 AM)
Average51 °F63%30.03 "Hg
* Reported May 9 2:00 PM — May 24 2:00 PM, Barrie, Weather by CustomWeather, © 2016

Note: Actual official high and low records may vary slightly from our data, if they occured in-between our weather recording intervals... More about our weather records

Advertising

Barrie Weather History for the Previous 24 Hours

Scroll right to see more
 ConditionsComfort  
Time TempWeatherWind HumidityBarometerVisibility
2:00 PM
Tue, May 24
81 °FSunny.10 mph30%29.98 "Hg9 mi
1:00 PM81 °FSunny.8 mph30%29.97 "Hg9 mi
12:00 PM79 °FSunny.9 mph30%29.98 "Hg9 mi
11:00 AM77 °FSunny.7 mph34%29.98 "Hg9 mi
10:00 AM73 °FPassing clouds.No wind36%29.99 "Hg9 mi
9:00 AM68 °FSunny.2 mph46%29.99 "Hg9 mi
8:00 AM57 °FSunny.No wind72%29.99 "Hg9 mi
7:00 AM43 °FSunny.No wind93%29.99 "Hg9 mi
6:00 AM37 °FClear.No wind87%29.99 "Hg9 mi
5:00 AM37 °FClear.2 mph87%29.98 "Hg9 mi
4:00 AM37 °FClear.2 mph93%29.98 "Hg9 mi
3:00 AM39 °FClear.2 mph87%29.98 "Hg9 mi
2:00 AM39 °FClear.No wind87%29.99 "Hg9 mi
1:00 AM43 °FClear.2 mph81%29.99 "Hg9 mi
12:00 AM48 °FClear.2 mph76%29.99 "Hg9 mi
11:00 PM
Mon, May 23
48 °FClear.2 mph71%29.99 "Hg9 mi
10:00 PM52 °FClear.No wind62%29.98 "Hg9 mi
9:00 PM59 °FSunny.2 mph48%29.97 "Hg9 mi
8:00 PM66 °FSunny.5 mph37%29.97 "Hg9 mi
7:00 PM70 °FSunny.12 mph33%29.98 "Hg9 mi
6:00 PM73 °FSunny.8 mph31%29.97 "Hg9 mi
5:00 PM75 °FSunny.8 mph31%29.98 "Hg9 mi
4:00 PM75 °FSunny.10 mph31%29.99 "Hg9 mi
3:00 PM77 °FSunny.6 mph30%30.01 "Hg9 mi
Weather by CustomWeather, © 2016

See weather overviewHow to use our weather pages